[[{"header":{"parameterUnit":"m.s-1","parameterCategory":1,"la1":30.2991,"la2":30.254,"lo1":-89.0895,"lo2":-89.0444,"dy":0.0017,"dx":0.0017,"nx":28,"ny":28,"refTime":"2023-11-08T09:00:00:Z","depth":0,"parameterNumber":2,"parameterNumberName":"U-component_of_WINDS"},"data":[0,0,0,0,0,0,0,0,0,0,0,0,0,0,0,0,0,0,0,0,0,0,0,0,0,0,0,0,0,0,0,0,0,0,0,0,0,0,0,0,0,0,0,0,0,0,0,0,0,0,0,0,0,0,0,0,0,0,-0.0523,-0.0522,0,-0.046,-0.0459,-0.0459,-0.0465,-0.0466,-0.0467,-0.0468,-0.0401,-0.0399,-0.0396,0,0,0,0,0,0,0,0,0,0,0,0,0,-0.0647,-0.0645,-0.0523,-0.0522,-0.0521,-0.046,-0.0459,-0.0458,-0.0465,-0.0466,-0.0468,-0.0469,-0.0402,-0.0399,-0.0396,0,0,0,0,0,0,0,0,0,0,0,0,0,-0.059,-0.0644,-0.0523,-0.0517,-0.0516,-0.046,-0.0459,-0.0458,-0.0465,-0.0466,-0.0468,-0.0469,-0.0403,-0.0399,-0.0395,-0.034,0,0,-0.0383,-0.0381,0,0,0,0,0,0,0,0,-0.0593,-0.0585,-0.0519,-0.0518,-0.0516,-0.0472,-0.0479,-0.0418,-0.0465,-0.0484,-0.0468,-0.047,-0.0424,-0.0418,-0.0403,-0.0337,-0.0334,-0.0383,-0.038,-0.0378,-0.0377,0,0,0,0,0,0,0,-0.0597,-0.0588,-0.0498,-0.0518,-0.0516,-0.0517,-0.0511,-0.0467,-0.0446,-0.0483,-0.0483,-0.0476,-0.0423,-0.0407,-0.0401,-0.0333,-0.0383,-0.0379,-0.0377,-0.0375,-0.0219,-0.0218,0,0,0,0,0,0,-0.0602,-0.0591,-0.05,-0.0496,-0.0559,-0.0514,-0.0507,-0.0485,-0.0447,-0.0442,-0.0475,-0.0476,-0.0413,-0.0406,-0.0399,-0.0332,-0.0378,-0.0375,-0.0372,-0.0221,-0.0219,-0.0217,0,0,0,0,0,0,-0.0605,-0.0594,-0.0502,-0.0544,-0.0532,-0.051,-0.0485,-0.0483,-0.0466,-0.0441,-0.0437,-0.0462,-0.0414,-0.0405,-0.0355,-0.0329,-0.0373,-0.0369,-0.0223,-0.022,-0.0218,-0.0197,0,0,0,0,0,0,-0.0609,-0.0595,-0.0574,-0.0543,-0.053,-0.046,-0.0484,-0.048,-0.046,-0.0461,-0.0427,-0.0423,-0.0414,-0.0361,-0.0351,-0.0325,-0.0366,-0.0225,-0.0222,-0.0219,-0.02,-0.0194,-0.0189,0,0,0,0,0,-0.0613,-0.057,-0.0573,-0.0562,-0.0503,-0.0458,-0.0451,-0.0442,-0.0457,-0.0436,-0.042,-0.0424,-0.0334,-0.0356,-0.0345,-0.0317,-0.0227,-0.0223,-0.0219,-0.0202,-0.0195,-0.0189,0,0,0,0,0,0,-0.0598,-0.0566,-0.0569,-0.0515,-0.0489,-0.046,-0.0432,-0.0435,-0.0404,-0.0407,-0.0397,-0.0389,-0.0339,-0.0323,-0.0348,-0.0261,-0.0282,-0.0276,-0.0273,-0.0266,-0.0261,-0.0265,-0.0363,0,0,0,0,0,-0.0588,-0.0555,-0.0529,-0.0484,-0.0471,-0.0454,-0.0434,-0.043,-0.0403,-0.0392,-0.0372,-0.0344,-0.031,-0.0288,-0.0255,-0.0198,-0.019,-0.0173,-0.0168,-0.0163,-0.0158,-0.0127,-0.0119,-0.0205,-0.0205,-0.0205,0,0,-0.0568,-0.0546,-0.0526,-0.048,-0.046,-0.0425,-0.0445,-0.0407,-0.0381,-0.0386,-0.0338,-0.0322,-0.0291,-0.0238,-0.0213,-0.0223,-0.0133,-0.0159,-0.0155,-0.0152,-0.0122,-0.0114,-0.0107,-0.0202,-0.0202,-0.0203,0,0,-0.0513,-0.0494,-0.0454,-0.0434,-0.0403,-0.0392,-0.0383,-0.0353,-0.0343,-0.0295,-0.0298,-0.0267,-0.0208,-0.0186,-0.0167,-0.0105,-0.0108,-0.0095,-0.0066,-0.0036,-0.0029,-0.0023,-0.0,0.0008,-0.0089,-0.0089,-0.0089,0,-0.0491,-0.044,-0.0433,-0.0395,-0.0375,-0.0379,-0.0338,-0.0318,-0.0279,-0.0264,-0.0276,-0.0203,-0.0182,-0.0124,-0.0109,-0.0094,-0.0082,-0.0098,-0.0031,-0.0025,-0.0019,0.0003,0.0011,-0.0088,-0.0088,-0.0088,-0.0088,0,-0.0414,-0.0378,-0.035,-0.0312,-0.0289,-0.025,-0.0237,-0.0214,-0.0212,-0.02,-0.0151,-0.0127,-0.0089,-0.0075,-0.0072,-0.0016,-0.0023,-0.0033,-0.0054,-0.0009,0.0011,0.002,-0.0086,-0.0086,-0.0087,-0.0087,0,0,-0.0346,-0.0307,-0.0296,-0.0279,-0.0247,-0.0219,-0.018,-0.0144,-0.0124,-0.0097,-0.0064,-0.0015,-0.0024,-0.0002,0.0003,0.0029,0.0077,0.0016,0.0017,0.0027,0.014,0.0148,0.0157,0.0074,0.0076,0.0077,0.0138,0,-0.0288,-0.022,-0.0213,-0.0152,-0.0119,-0.0123,-0.0089,-0.0065,-0.0053,-0.0023,-0.0009,0.0026,0.0011,0.0024,0.0049,0.0065,0.01,0.0061,0.0106,0.0107,0.0099,0.0168,0.0177,0.0233,0.0146,0.0147,0.0148,0,-0.021,-0.0181,-0.0117,-0.009,-0.0076,-0.0045,-0.0012,0.0016,0.0043,0.005,0.0073,0.0075,0.0115,0.0091,0.0147,0.0121,0.0139,0.015,0.0152,0.0158,0.0131,0.0176,0.0251,0.026,0.0161,0.016,0.0159,0,-0.0166,-0.0112,-0.0066,-0.0052,-0.0019,0.0002,0.0017,0.0042,0.0063,0.0092,0.0106,0.014,0.0159,0.0185,0.0195,0.0177,0.025,0.0228,0.0258,0.0258,0.0275,0.0274,0.0354,0.0285,0.0285,0.0285,0.0285,0,-0.0101,-0.0061,-0.0047,-0.0018,0.0026,0.0033,0.0076,0.009,0.0113,0.0144,0.0142,0.0171,0.0183,0.0214,0.0222,0.0267,0.0275,0.0283,0.0285,0.0283,0.0283,0.0296,0.0293,0.0287,0.0287,0.0286,0.0286,0,-0.0044,-0.0033,0.0016,0.0043,0.0051,0.0082,0.0105,0.0133,0.0143,0.0183,0.0192,0.021,0.0246,0.0259,0.0303,0.0309,0.0361,0.036,0.0352,0.0353,0.0382,0.038,0.0476,0.0489,0.041,0.0411,0.0411,0,-0.0003,0.0027,0.0057,0.0077,0.0093,0.0125,0.0146,0.0154,0.0176,0.0209,0.0232,0.0268,0.0297,0.0355,0.0373,0.0406,0.0406,0.0437,0.0411,0.0409,0.0407,0.0405,0.0409,0.0442,0.0443,0.0444,0.0444,0,0.0069,0.0073,0.0103,0.0135,0.016,0.0186,0.0211,0.0228,0.0239,0.0264,0.0301,0.0323,0.0368,0.0404,0.0438,0.0454,0.0452,0.0452,0.0461,0.0461,0.0455,0.0459,0.0366,0.045,0.045,0.0449,0.0449,0.0449,0.012,0.0147,0.0172,0.0205,0.0224,0.0247,0.0274,0.0288,0.0318,0.0355,0.0358,0.0397,0.0423,0.0469,0.0486,0.0517,0.0509,0.0522,0.0525,0.0528,0.0531,0.0449,0.0524,0.0523,0.0523,0.0523,0.0523,0,0.0193,0.0208,0.0239,0.0273,0.03,0.0294,0.0321,0.0343,0.0378,0.0402,0.043,0.0472,0.0506,0.0526,0.056,0.0581,0.0581,0.059,0.0589,0.0593,0.0536,0.0525,0.059,0.059,0.059,0.059,0.059,0.059,0.0234,0.0279,0.0285,0.0339,0.0355,0.0393,0.0409,0.043,0.0449,0.0496,0.0524,0.0536,0.0558,0.0594,0.0625,0.063,0.0643,0.0653,0.0657,0.0604,0.0597,0.0591,0.058,0.0656,0.0656,0.0711,0.0712,0.0712]},{"header":{"parameterUnit":"m.s-1","parameterCategory":1,"la1":30.2991,"la2":30.254,"lo1":-89.0895,"lo2":-89.0444,"dy":0.0017,"dx":0.0017,"nx":28,"ny":28,"refTime":"2023-11-08T09:00:00:Z","depth":0,"parameterNumber":3,"parameterNumberName":"V-component_of_WINDS"},"data":[0,0,0,0,0,0,0,0,0,0,0,0,0,0,0,0,0,0,0,0,0,0,0,0,0,0,0,0,0,0,0,0,0,0,0,0,0,0,0,0,0,0,0,0,0,0,0,0,0,0,0,0,0,0,0,0,0,0,2.2442,2.2443,0,2.251,2.2511,2.2512,2.2475,2.2473,2.2471,2.247,2.2539,2.2543,2.2546,0,0,0,0,0,0,0,0,0,0,0,0,0,2.2279,2.2282,2.2442,2.2443,2.2444,2.251,2.2511,2.2512,2.2475,2.2473,2.2471,2.2469,2.2538,2.2542,2.2547,0,0,0,0,0,0,0,0,0,0,0,0,0,2.2348,2.2283,2.2442,2.2433,2.2433,2.251,2.2511,2.2512,2.2476,2.2473,2.247,2.2468,2.2537,2.2542,2.2547,2.2636,0,0,2.2564,2.2566,0,0,0,0,0,0,0,0,2.2345,2.2354,2.2434,2.2434,2.2434,2.2481,2.2479,2.2554,2.2477,2.246,2.247,2.2466,2.2522,2.2529,2.2548,2.2639,2.2642,2.2564,2.2568,2.257,2.2571,0,0,0,0,0,0,0,2.234,2.2351,2.2469,2.2435,2.2435,2.2426,2.2433,2.2493,2.2506,2.2461,2.2458,2.2467,2.2522,2.2543,2.2549,2.2643,2.2564,2.2569,2.2572,2.2574,2.2811,2.2814,0,0,0,0,0,0,2.2335,2.2348,2.2467,2.2471,2.2382,2.2431,2.2439,2.2469,2.2505,2.2508,2.2469,2.2465,2.2535,2.2543,2.2551,2.2658,2.257,2.2575,2.2578,2.2808,2.2811,2.2815,0,0,0,0,0,0,2.2332,2.2346,2.2464,2.2409,2.2423,2.2437,2.2471,2.2472,2.2492,2.2511,2.2513,2.2488,2.2533,2.2544,2.2615,2.266,2.2577,2.2582,2.2804,2.2809,2.2813,2.2871,0,0,0,0,0,0,2.2328,2.2345,2.238,2.241,2.2426,2.2527,2.2474,2.2475,2.2502,2.2497,2.253,2.2532,2.2531,2.2607,2.2621,2.2666,2.2586,2.28,2.2806,2.2812,2.2866,2.2877,2.2888,0,0,0,0,0,2.2322,2.2394,2.2382,2.2396,2.2469,2.253,2.2539,2.2537,2.2506,2.254,2.2552,2.2531,2.2652,2.2615,2.263,2.2677,2.2798,2.2805,2.2811,2.2861,2.2875,2.2887,0,0,0,0,0,0,2.2369,2.2397,2.2385,2.2468,2.2497,2.2524,2.2567,2.2552,2.2591,2.2585,2.258,2.2587,2.2662,2.2676,2.2634,2.2764,2.272,2.273,2.2753,2.2766,2.2777,2.2773,2.2591,0,0,0,0,0,2.2389,2.2436,2.2458,2.253,2.2545,2.2554,2.258,2.2575,2.2605,2.2617,2.2634,2.2664,2.2708,2.2738,2.278,2.2867,2.2873,2.2906,2.2917,2.2926,2.2935,2.2982,2.2997,2.2837,2.2837,2.2837,0,0,2.2431,2.2452,2.2482,2.254,2.2561,2.261,2.2564,2.2618,2.2654,2.2625,2.2694,2.2708,2.274,2.282,2.2855,2.2834,2.2981,2.2935,2.2942,2.2946,2.2991,2.3006,2.3019,2.2842,2.2841,2.284,0,0,2.2533,2.2553,2.2615,2.2638,2.2671,2.2676,2.2691,2.272,2.2728,2.2797,2.2776,2.2818,2.2895,2.2919,2.2941,2.3051,2.3033,2.3064,2.3122,2.3168,2.318,2.3192,2.3231,2.3245,2.3073,2.3073,2.3073,0,2.2581,2.2654,2.2649,2.2704,2.273,2.2705,2.2768,2.279,2.2835,2.2854,2.2828,2.2924,2.2944,2.3029,2.3055,2.3074,2.3091,2.3061,2.3179,2.319,2.32,2.3238,2.3253,2.3077,2.3076,2.3076,2.3076,0,2.2712,2.2763,2.2808,2.2853,2.2883,2.2942,2.2945,2.2977,2.2969,2.2977,2.3047,2.3069,2.3116,2.3135,2.3128,2.3219,2.3204,2.3179,2.3135,2.3219,2.3255,2.3269,2.3082,2.3081,2.308,2.3079,0,0,2.2847,2.2887,2.2904,2.2924,2.2958,2.2997,2.3054,2.3099,2.3126,2.3157,2.3205,2.327,2.3247,2.3272,2.3267,2.3307,2.3393,2.3277,2.3278,2.3298,2.3494,2.3514,2.3531,2.338,2.3383,2.3385,2.3491,0,2.2952,2.3052,2.3048,2.3142,2.3189,2.3165,2.3214,2.3241,2.3249,2.3289,2.3298,2.3344,2.331,2.3325,2.3363,2.3374,2.3432,2.3366,2.3425,2.3427,2.3419,2.3549,2.357,2.367,2.3505,2.3507,2.3509,0,2.3088,2.3124,2.3222,2.3249,2.3268,2.3313,2.3354,2.3393,2.3421,2.3424,2.3452,2.344,2.3497,2.345,2.3529,2.3484,2.3508,2.3516,2.352,2.3527,2.3475,2.356,2.3701,2.3717,2.3531,2.3529,2.3527,0,2.3178,2.3251,2.3319,2.3336,2.3369,2.3401,2.3416,2.3442,2.3469,2.3504,2.3521,2.3562,2.3585,2.3617,2.3617,2.3582,2.3696,2.3649,2.3701,2.3701,2.3727,2.3726,2.3876,2.374,2.374,2.374,2.374,0,2.3297,2.3358,2.336,2.3402,2.3469,2.3464,2.3531,2.3542,2.3565,2.3609,2.359,2.3631,2.3628,2.3669,2.3669,2.3734,2.3744,2.3748,2.3748,2.3751,2.3751,2.3768,2.3761,2.3744,2.3743,2.3742,2.3742,0,2.341,2.3413,2.3486,2.351,2.3518,2.3566,2.3587,2.3627,2.3632,2.3688,2.37,2.3709,2.3757,2.3759,2.3814,2.3814,2.3894,2.3885,2.3884,2.3883,2.3935,2.3931,2.4102,2.4124,2.3973,2.3975,2.3976,0,2.3486,2.3532,2.3561,2.3589,2.3606,2.3651,2.3678,2.3674,2.3703,2.3738,2.3773,2.3819,2.3856,2.3933,2.3944,2.3986,2.3979,2.4035,2.3985,2.3986,2.3981,2.3978,2.3983,2.4046,2.4048,2.4049,2.405,0,2.3621,2.362,2.366,2.3701,2.3733,2.3765,2.3795,2.3818,2.3817,2.3851,2.3899,2.3928,2.3983,2.4029,2.4069,2.4084,2.4068,2.4066,2.408,2.4085,2.4083,2.4085,2.3913,2.4062,2.4061,2.406,2.406,2.4059,2.3718,2.3758,2.3785,2.383,2.3851,2.3879,2.3917,2.3927,2.3968,2.4013,2.4007,2.4061,2.4087,2.414,2.4158,2.4199,2.418,2.42,2.4206,2.4211,2.4217,2.4075,2.4206,2.4206,2.4206,2.4205,2.4205,0,2.3853,2.3869,2.391,2.3952,2.3987,2.3967,2.3998,2.4029,2.4077,2.4102,2.4138,2.4194,2.4238,2.4252,2.4294,2.4325,2.4318,2.4336,2.4335,2.4338,2.4232,2.4216,2.4341,2.4341,2.4341,2.4341,2.4341,2.4341,2.3928,2.3994,2.3997,2.4073,2.4088,2.4141,2.416,2.4186,2.4206,2.4269,2.4305,2.4314,2.4335,2.4378,2.4417,2.442,2.4437,2.4459,2.4459,2.4359,2.4346,2.4333,2.4318,2.4462,2.4462,2.4562,2.4562,2.4563]}]]